Wind_Speed
10 9 8 7 8 8 8 8 8 7 6 5 4 5 8 9 11 12 12 13 11 10 11 12 13 12 11 9 8 8 9 12 9 6 5 1 1 1 1 2 2 3 3 2 2 2 3 3 4 4 3 2 2 2 1 2 2 2 3 4 5 6 7 8 8 9 10 11 12 12 12 13 13 13 13 14 14 15 16 17 17 17 17 17 16
11 9 8 8 9 10 10 11 10 9 9 8 7 6 8 9 10 10 9 9 8 6 7 8 10 11 12 9 8 8 9 10 7 6 5 1 2 1 1 2 2 2 2 2 2 2 3 3 3 3 3 2 2 2 1 2 3 3 4 5 6 7 8 9 10 11 12 13 13 14 14 14 14 14 15 15 15 16 17 17 18 18 19 19 17
11 10 10 10 10 11 11 10 10 11 11 10 8 7 8 9 7 5 4 6 5 4 5 6 7 10 15 12 8 10 11 10 8 8 6 1 2 2 1 2 2 2 2 2 2 2 3 3 3 3 3 2 2 2 2 2 3 4 5 6 8 9 10 12 13 13 14 15 15 16 15 15 15 15 15 16 16 16 17 17 18 19 19 19 17
13 12 11 9 9 9 9 10 10 10 9 8 7 7 7 6 5 4 4 5 6 5 4 6 7 7 15 14 8 10 12 11 10 10 8 3 2 3 2 2 2 2 2 2 2 2 3 3 3 3 2 3 3 2 2 3 4 5 6 8 10 12 14 15 15 15 15 16 16 17 17 15 14 14 14 14 15 15 16 16 17 18 19 19 16
14 13 10 9 9 8 9 9 9 8 7 6 7 7 5 4 4 5 5 5 7 6 4 4 4 4 10 13 10 10 13 13 11 12 9 4 2 2 4 3 3 3 2 2 1 1 2 3 3 3 2 3 3 3 3 4 5 6 9 12 13 14 16 17 16 16 16 17 18 17 16 14 13 13 14 14 14 14 14 15 16 17 18 18 15
14 13 11 10 7 8 9 9 7 6 5 5 6 7 4 3 4 4 5 6 6 7 6 6 6 4 5 9 7 9 13 15 14 14 10 5 3 2 3 4 4 4 3 2 1 1 2 3 3 3 3 4 4 4 4 5 6 8 11 13 14 15 16 17 16 16 17 18 18 16 14 14 13 13 14 14 14 13 13 14 15 17 18 18 16
14 13 12 8 6 8 9 8 6 5 5 5 5 5 3 1 4 5 5 6 6 7 8 9 9 7 5 5 3 2 9 14 17 15 9 5 5 3 2 2 2 3 3 2 2 1 1 2 3 4 4 4 5 5 6 6 8 10 12 13 14 16 17 17 17 17 17 18 17 14 12 12 13 13 13 14 14 14 14 15 16 18 19 18 16
13 12 9 6 7 9 8 7 7 6 6 6 5 4 3 2 3 4 5 6 6 8 8 9 7 4 3 5 4 1 6 13 16 14 9 6 5 4 4 2 1 3 2 1 1 1 1 1 2 3 2 3 5 7 8 9 10 12 13 14 15 17 17 17 17 16 16 16 15 12 11 12 13 14 14 14 15 16 16 16 17 18 19 19 17
12 10 7 6 10 9 6 7 7 7 6 5 5 4 3 3 3 3 4 5 7 9 9 9 6 7 4 5 5 3 6 7 6 11 12 8 5 6 6 6 5 5 3 2 2 2 1 2 3 3 3 3 4 7 9 11 12 14 14 14 16 18 18 15 14 13 13 13 12 11 11 13 14 15 15 15 16 17 17 17 17 17 17 19 18
11 9 5 8 11 8 7 7 7 6 6 6 5 4 4 4 4 4 5 6 10 11 9 9 4 5 5 4 6 4 4 2 2 11 14 9 9 8 7 9 8 6 5 4 4 4 4 5 5 5 5 4 5 8 10 11 13 13 14 14 16 18 17 14 12 11 10 10 10 10 12 14 15 15 15 15 15 16 17 17 17 16 15 16 17
10 7 5 9 11 8 7 7 7 6 6 7 5 4 3 3 3 4 5 8 11 11 11 10 5 2 4 5 5 3 4 2 3 11 12 10 11 10 9 11 10 8 7 6 5 5 6 7 7 6 6 6 6 9 10 11 13 14 14 14 16 16 14 14 13 12 11 11 11 11 13 15 14 14 14 15 16 17 18 18 18 17 15 13 13
9 7 7 10 10 8 8 7 6 5 5 6 5 4 2 2 3 4 6 8 9 9 11 10 5 6 4 8 5 4 7 5 6 10 11 11 13 13 14 14 12 12 10 8 7 5 6 9 10 8 7 8 8 9 11 12 14 14 13 13 15 14 13 14 14 14 13 13 12 13 15 15 13 14 15 16 17 19 20 20 19 18 16 14 12
10 9 9 10 9 8 8 7 6 5 4 5 5 4 2 4 4 3 5 8 9 7 9 9 4 4 4 9 8 7 8 8 8 10 11 11 13 12 14 16 15 16 14 11 11 9 8 11 11 9 9 10 10 11 12 12 13 14 13 13 13 12 13 14 15 15 14 13 13 14 15 14 13 14 15 17 18 20 20 19 19 18 17 14 13
13 11 9 9 9 8 8 7 6 5 4 4 5 5 4 5 3 4 6 8 9 7 9 8 2 3 2 5 6 7 9 10 8 9 9 6 6 3 4 9 7 10 16 15 14 10 7 10 12 11 10 10 12 12 12 12 14 13 11 11 12 12 13 14 15 15 14 14 14 15 15 14 14 14 15 17 18 20 20 19 18 18 17 15 13
15 11 9 10 9 8 8 7 6 6 5 5 6 5 6 5 3 6 5 6 8 6 7 9 9 8 3 1 2 4 6 6 1 2 4 2 2 1 2 1 2 2 10 11 11 9 3 4 7 9 10 10 12 11 11 12 13 12 9 11 13 13 13 14 15 15 14 15 15 16 16 14 14 14 15 17 18 19 19 18 18 17 17 15 13
16 12 11 9 8 8 8 6 6 6 7 6 6 5 5 4 2 4 3 5 5 4 5 8 12 10 3 1 1 2 1 3 2 5 4 2 1 2 1 4 4 2 5 3 5 6 5 4 3 7 9 10 12 10 9 10 11 11 10 12 14 13 13 14 14 15 15 16 16 16 16 15 15 15 16 17 17 18 17 17 17 17 17 15 13
16 13 10 8 7 8 8 8 6 6 7 6 6 6 5 5 5 4 2 3 5 6 6 6 10 11 4 2 2 1 1 3 2 4 5 5 3 3 3 2 4 2 1 2 3 4 6 4 4 6 5 6 9 8 8 8 9 9 9 11 13 13 13 13 13 14 15 15 16 16 15 15 15 15 16 17 17 17 16 16 16 16 17 16 12
13 12 11 10 9 8 8 8 6 5 6 5 5 5 5 5 6 5 2 1 3 6 7 6 8 11 9 6 5 3 2 1 1 1 5 4 4 5 1 4 4 4 2 4 6 4 4 4 4 5 2 1 3 4 8 9 8 8 9 10 12 13 13 13 12 12 13 14 15 15 14 14 15 15 16 17 18 16 15 16 16 16 17 17 13
13 12 12 11 9 7 8 8 6 6 6 5 5 5 4 4 4 5 4 1 1 5 7 7 8 9 10 8 6 4 2 2 2 1 2 3 5 7 4 3 4 4 3 6 6 4 3 4 5 4 1 1 2 4 7 8 7 8 10 10 12 12 12 11 11 11 12 14 15 14 14 14 14 16 17 18 17 16 15 16 17 17 17 17 15
15 13 13 12 10 9 9 8 7 7 6 5 5 5 5 6 5 4 4 2 1 4 5 6 7 8 10 7 5 7 5 2 2 2 2 0 4 6 4 4 5 4 4 6 5 4 5 6 7 7 5 5 6 9 8 6 7 10 10 10 10 10 10 10 10 11 12 13 14 13 13 14 15 17 18 18 17 16 16 16 17 17 17 17 16
16 14 13 13 13 12 10 10 8 7 8 7 6 6 6 7 6 4 4 3 0 2 2 5 6 5 7 7 6 7 4 3 3 2 3 1 2 3 4 7 8 7 6 6 6 6 5 6 8 8 7 8 10 10 9 7 8 9 9 9 9 9 9 10 10 11 12 12 12 12 13 14 16 17 18 17 16 15 15 16 17 17 17 16 16
17 14 14 13 12 12 11 11 9 8 9 7 6 7 6 6 6 5 4 4 3 2 2 4 4 3 5 6 8 7 3 2 3 2 2 2 1 3 6 7 7 9 9 7 7 6 6 7 9 8 7 8 9 8 7 5 6 7 8 9 10 9 8 9 10 11 11 10 10 12 13 15 16 17 18 17 16 15 15 15 16 16 16 15 15
17 15 15 13 12 12 11 10 9 8 8 7 5 6 7 6 6 6 5 4 4 5 4 3 3 4 5 6 8 9 7 4 3 3 1 2 1 3 6 7 7 8 9 9 7 6 6 8 9 9 8 7 7 7 7 6 6 7 7 8 9 8 7 8 10 11 10 9 10 11 13 15 16 17 17 17 16 15 14 14 15 15 14 14 14
17 16 16 15 12 12 11 10 9 8 9 8 7 7 8 8 7 7 6 4 4 5 5 4 4 5 5 6 7 7 6 5 4 4 3 2 2 3 6 6 5 7 10 9 7 6 7 8 9 9 7 7 7 7 8 7 7 7 6 8 8 7 6 8 9 9 9 9 10 11 12 14 16 17 17 16 16 15 15 15 14 14 13 12 12
19 18 17 16 15 14 13 12 11 10 10 9 9 8 8 8 6 6 7 6 4 4 4 5 5 5 6 7 7 7 7 5 4 3 3 3 3 4 6 6 5 7 9 7 6 7 7 7 8 7 5 6 7 6 7 7 7 7 6 7 8 7 7 8 9 9 9 9 10 10 11 14 16 16 16 15 15 15 16 16 15 14 13 12 11
20 20 18 16 16 15 14 13 12 12 11 11 11 10 9 8 6 6 7 7 6 5 5 6 6 6 6 7 7 7 7 6 6 5 5 6 7 7 6 4 5 7 7 5 5 5 5 6 5 4 5 6 6 6 7 8 7 6 7 8 8 8 9 10 9 9 9 10 10 10 11 14 15 16 15 14 14 14 15 16 15 14 13 12 11
18 18 17 16 17 17 15 14 14 14 13 13 14 13 12 11 10 10 9 8 6 6 7 7 7 7 7 7 7 7 6 6 7 7 6 7 9 9 7 4 3 4 3 3 4 3 5 8 6 5 5 5 5 7 9 8 7 8 9 10 10 10 12 12 11 10 10 11 11 10 11 14 15 15 14 13 13 13 14 15 15 14 13 13 12
18 17 17 17 17 18 17 15 15 15 15 15 14 14 13 12 12 12 12 11 8 7 8 8 8 8 7 7 8 8 7 7 7 7 7 7 7 7 9 7 3 2 2 2 3 2 5 9 8 6 5 4 6 8 8 8 9 10 11 10 11 12 13 13 11 11 11 11 11 10 11 13 15 14 13 13 13 13 13 13 14 14 14 13 12
18 18 18 17 17 18 18 17 16 15 16 16 15 13 12 11 12 12 13 13 11 9 9 9 9 9 8 8 9 9 6 5 5 5 7 9 6 5 8 7 5 2 0 2 2 2 4 8 8 5 3 6 9 8 7 9 10 11 11 9 10 11 12 11 12 12 13 11 10 10 9 11 13 13 13 12 12 12 12 13 13 14 14 14 12
19 19 19 18 17 16 17 18 17 16 15 15 14 13 13 13 12 11 11 11 12 11 11 11 11 10 9 9 10 10 8 6 5 6 7 9 9 6 7 8 7 6 4 3 2 4 5 7 7 7 7 9 9 7 8 10 10 11 11 9 10 12 14 15 14 14 13 11 10 8 8 10 12 12 12 12 12 12 12 12 12 13 13 13 13
18 20 20 20 20 17 17 18 17 16 17 16 14 13 14 14 14 13 12 11 12 13 12 12 13 12 11 10 10 10 10 8 7 7 8 9 10 9 9 10 9 9 8 6 2 4 6 7 8 9 9 10 9 8 9 8 8 9 10 10 10 13 17 19 19 17 15 11 9 7 6 8 10 11 11 11 12 12 12 12 12 11 12 12 12
18 19 19 21 23 21 19 19 17 16 17 17 16 15 15 15 15 15 14 13 14 15 14 13 12 11 11 11 10 9 8 8 8 8 9 10 10 10 13 14 13 11 10 8 6 6 9 9 9 9 8 8 9 9 8 6 7 9 9 9 10 14 15 14 14 15 15 12 8 5 4 6 8 10 10 10 11 11 12 12 11 11 11 11 12
19 19 18 19 21 21 20 21 20 18 18 17 17 17 17 16 16 15 14 14 16 16 16 15 12 12 13 12 12 10 8 8 8 9 10 10 10 11 12 11 8 8 9 9 9 8 9 8 7 7 7 7 8 8 7 7 9 10 10 10 11 12 11 7 6 7 8 10 8 5 3 4 6 8 9 10 10 11 11 11 10 11 11 11 12
20 19 19 18 18 20 21 21 20 18 18 19 19 19 18 18 18 17 16 15 16 15 16 16 14 13 15 15 14 12 10 9 9 10 12 11 10 10 8 6 3 3 6 10 10 8 8 7 6 6 6 7 8 8 9 10 11 11 12 11 10 9 8 6 4 4 3 7 7 4 3 4 4 6 8 8 9 10 10 10 10 11 11 11 12
18 20 21 21 19 19 20 21 20 19 18 19 21 22 20 20 20 20 18 16 15 15 16 16 16 15 14 14 13 12 11 11 11 11 10 9 8 7 5 3 2 2 2 6 9 8 7 6 5 6 7 8 10 11 12 12 11 12 12 10 9 8 8 8 6 3 2 6 7 5 4 4 2 4 6 7 8 9 9 9 10 10 11 11 12
13 15 18 21 23 23 21 20 20 20 19 19 21 23 23 21 20 20 19 17 15 16 17 18 18 16 14 14 13 12 12 12 13 12 10 9 8 6 5 6 4 3 1 4 6 6 6 6 5 7 8 10 12 13 12 12 11 10 10 9 8 9 9 9 8 4 3 6 7 6 6 4 2 3 4 5 7 8 8 8 9 10 10 11 12
16 15 14 16 19 22 24 24 22 21 20 18 18 21 23 22 20 18 18 18 16 16 16 17 18 17 16 15 13 13 14 14 13 12 11 11 10 9 8 7 6 5 4 4 6 5 5 6 6 8 10 11 12 13 12 12 11 10 9 8 8 10 10 9 8 5 4 6 7 8 8 6 3 1 3 4 6 6 7 7 8 9 10 11 11
15 14 13 16 17 18 19 23 25 23 22 20 18 16 18 20 19 18 17 18 19 18 18 18 18 18 16 14 14 14 14 14 13 11 11 11 10 9 8 6 6 6 5 6 7 6 6 6 7 9 10 10 10 12 12 11 11 11 10 8 8 10 10 8 7 6 5 6 8 9 9 7 5 2 1 3 4 6 6 6 7 8 9 10 11
8 7 11 15 17 17 17 20 23 23 22 22 21 19 18 17 17 17 17 18 19 19 19 18 16 15 14 14 14 14 15 15 14 12 12 11 10 10 8 6 5 6 6 6 7 8 8 8 8 9 9 9 10 11 11 10 10 10 10 9 9 10 11 10 10 8 6 6 7 7 6 7 6 4 1 1 3 4 5 5 7 7 8 9 10
12 9 11 13 16 17 15 19 22 21 19 19 20 21 20 19 17 17 17 16 14 14 14 14 14 15 16 15 14 14 15 14 13 12 12 12 11 11 9 6 6 7 6 6 6 8 9 10 9 10 10 10 10 11 10 10 10 10 9 9 10 12 13 12 10 7 7 6 5 5 6 9 8 6 4 2 1 3 4 5 6 7 8 8 8
18 15 12 12 17 20 17 16 20 21 20 19 18 18 18 18 18 17 18 17 15 13 11 12 14 16 16 16 14 13 13 13 13 13 13 12 12 11 10 9 9 9 9 9 8 9 10 11 12 12 11 11 11 11 10 11 11 10 10 10 11 12 12 11 8 5 4 4 4 5 8 10 10 9 7 5 2 1 2 4 5 7 8 8 8
16 14 10 9 13 16 16 13 15 20 21 20 18 18 17 17 18 17 17 18 18 17 13 12 13 14 15 15 13 13 14 12 12 12 12 11 11 12 12 13 13 14 14 14 13 12 12 14 15 13 12 13 14 12 11 11 10 10 10 10 11 11 10 10 8 5 4 5 5 6 9 11 12 12 10 8 6 3 2 2 4 7 8 7 7
11 10 7 6 7 10 11 10 9 14 18 18 17 18 18 17 18 17 15 16 19 19 16 12 11 11 12 13 12 13 12 10 10 11 11 11 11 11 12 13 14 16 17 17 16 14 14 15 16 14 14 16 17 14 13 13 13 12 12 11 10 10 8 8 7 6 5 5 6 7 10 11 13 14 12 11 10 6 3 2 3 6 7 7 7
8 8 6 4 4 6 8 10 10 12 15 15 14 16 17 17 17 15 13 14 16 18 18 15 13 12 12 13 11 9 8 7 8 10 11 12 12 12 12 12 13 14 16 17 18 16 16 16 16 16 17 18 18 18 17 16 16 15 14 13 12 11 10 9 8 8 6 6 7 10 11 12 13 15 14 14 13 9 5 4 3 4 6 7 7
9 8 6 4 5 6 6 7 8 8 10 10 10 12 14 15 15 13 13 13 14 16 18 17 15 13 12 13 12 9 10 12 12 11 11 12 13 13 13 13 14 14 14 15 17 17 17 18 19 20 21 20 21 21 19 16 16 16 15 15 14 13 12 12 13 12 8 7 9 11 11 12 15 17 17 16 15 12 8 6 4 4 6 7 8
7 7 7 6 7 7 5 4 4 5 7 8 8 9 11 12 13 12 13 14 13 13 15 16 15 13 12 13 13 12 13 14 13 12 12 14 15 14 14 15 15 15 14 15 16 16 17 18 20 22 23 22 22 23 21 18 17 17 17 17 17 16 15 14 15 13 9 8 10 10 10 11 15 19 19 18 17 14 10 8 5 5 6 6 8
5 5 6 6 6 5 5 5 7 8 8 8 9 10 11 12 12 12 13 14 14 12 12 12 12 10 9 11 12 13 13 12 12 12 12 13 14 14 13 14 15 15 15 16 16 17 18 19 21 22 22 21 21 22 21 20 19 18 18 19 19 18 16 14 14 14 11 11 12 11 10 11 15 19 21 20 18 15 13 10 7 6 6 6 7
6 6 6 7 6 6 6 7 9 10 9 9 10 11 12 12 12 12 11 12 13 12 10 9 8 8 9 10 12 12 12 12 12 13 13 12 13 13 13 14 15 16 17 18 17 17 18 19 20 21 21 21 20 21 21 21 21 20 19 20 21 19 16 14 15 16 14 13 15 15 12 11 13 19 21 21 19 17 15 13 10 7 7 6 6
10 9 8 7 6 6 7 8 9 9 9 9 10 10 10 11 11 11 10 10 11 11 10 9 9 9 10 10 11 12 12 12 13 13 13 11 11 12 13 14 14 16 18 18 17 17 17 17 18 18 19 19 20 20 21 21 21 19 17 19 21 19 15 13 13 15 15 15 17 17 14 11 11 15 20 20 19 18 16 14 12 9 8 7 6
17 16 13 10 6 2 1 1 2 5 4 4 6 8 9 10 9 10 10 10 10 10 9 8 7 7 6 5 7 8 9 11 12 11 10 9 10 10 11 12 13 14 16 16 16 16 15 16 16 17 18 19 19 20 20 20 20 19 18 21 21 18 16 15 14 14 14 16 19 17 15 12 8 11 17 18 16 16 15 14 14 11 8 7 6
21 20 19 18 16 13 13 13 9 5 4 5 3 3 5 7 7 8 10 9 8 7 4 2 2 2 2 2 2 3 4 5 6 7 7 8 9 10 11 11 12 13 15 16 17 17 17 18 18 19 20 22 22 22 21 19 18 18 18 21 22 20 18 19 18 14 9 12 19 20 17 14 9 9 15 14 8 8 12 14 15 12 9 8 8
Wind_Direction
160 159 159 164 167 178 191 195 197 197 205 223 230 238 254 262 267 274 274 273 278 283 279 258 229 193 187 200 197 204 212 208 212 235 247 275 6 83 144 164 185 204 209 212 213 206 197 186 177 177 187 190 204 222 239 261 278 281 293 306 309 311 309 309 309 310 311 311 313 313 310 306 301 298 292 288 285 282 282 282 281 281 279 278 279
165 173 182 186 185 192 203 207 212 221 226 236 245 254 271 278 281 279 274 273 276 290 278 236 213 199 192 183 171 180 196 204 224 237 223 252 9 57 134 156 170 197 202 197 191 203 208 201 191 181 186 199 220 237 259 276 285 291 299 304 310 314 314 316 316 316 318 318 319 318 313 306 299 295 291 288 285 282 281 281 280 279 278 276 276
174 188 195 193 199 204 208 219 230 231 229 234 244 254 267 275 283 281 284 289 279 298 294 237 237 229 205 189 172 166 177 202 225 219 208 217 35 55 108 153 157 187 181 183 189 203 214 213 205 189 184 200 224 235 249 279 296 305 310 312 314 320 321 321 321 321 320 320 321 323 319 309 301 297 293 290 285 283 282 282 282 281 280 278 277
178 187 194 194 202 213 224 238 232 219 219 220 228 244 257 271 283 281 283 298 287 292 309 261 262 235 199 192 185 177 185 200 209 208 201 183 97 57 77 121 126 161 155 160 182 207 227 229 221 205 192 206 232 241 251 275 303 319 324 324 322 322 323 322 322 322 321 322 325 327 325 318 310 304 299 296 290 287 287 286 285 285 283 282 279
179 179 182 185 201 231 237 222 205 203 217 212 220 236 251 280 268 262 268 287 288 281 292 257 233 208 196 197 200 200 195 192 200 209 197 165 147 77 78 95 104 118 128 138 176 231 244 251 251 239 222 233 254 256 265 288 310 324 326 325 322 320 322 323 323 323 323 326 329 329 327 323 319 313 308 303 301 298 296 294 293 292 288 287 283
176 174 174 184 215 234 216 202 198 200 206 205 219 231 239 279 251 254 280 287 287 277 279 264 249 267 221 194 196 206 198 194 200 201 188 157 165 150 84 91 101 98 95 93 65 290 268 272 267 268 256 259 277 271 276 300 311 317 320 320 322 323 323 324 323 324 325 327 329 327 323 324 321 317 313 308 310 310 305 303 301 299 295 292 288
178 181 185 203 233 216 200 204 205 193 197 209 219 225 227 270 253 259 282 279 279 272 271 273 269 279 256 197 172 208 200 197 194 189 182 165 165 167 133 87 94 106 96 59 29 22 314 292 278 283 280 280 284 276 280 299 308 312 319 325 329 330 327 324 322 322 324 325 326 322 318 324 326 323 320 317 320 317 312 308 304 303 299 295 290
181 188 191 209 216 201 200 201 194 197 208 215 215 218 221 249 256 269 286 275 281 282 279 284 264 232 214 186 173 150 166 174 182 184 176 166 169 181 196 211 196 167 133 1 329 29 347 310 298 291 290 296 286 278 284 295 305 312 322 331 335 335 331 326 322 320 322 323 322 317 319 327 331 331 329 328 328 322 318 313 308 305 300 297 289
180 182 181 196 196 190 193 194 196 200 199 211 219 221 229 244 257 291 298 286 304 305 300 311 278 212 184 157 159 127 132 143 173 184 173 167 187 202 215 227 224 207 187 202 219 209 267 282 283 286 286 287 281 281 293 304 310 317 327 335 337 336 335 331 326 324 323 323 320 319 325 332 335 336 336 336 334 329 327 324 318 312 306 300 292
176 176 179 194 192 188 191 194 201 193 192 212 219 230 237 235 248 278 296 298 309 310 310 328 318 213 207 171 164 135 119 80 102 172 177 187 203 210 230 231 226 216 199 206 219 228 254 271 275 285 289 278 274 282 294 308 314 322 331 337 337 338 341 344 342 339 336 330 326 327 331 337 342 344 346 345 343 339 336 334 330 323 316 306 295
172 176 190 196 194 195 190 187 198 194 195 211 211 222 218 208 253 282 291 293 299 304 307 318 336 278 234 171 180 184 155 170 170 176 188 207 210 215 229 223 223 224 217 222 229 236 249 265 275 285 297 286 277 284 291 303 312 319 327 332 336 340 346 349 349 350 349 343 338 337 339 344 349 352 353 352 348 342 339 336 334 331 329 320 304
174 185 190 191 187 183 183 181 193 196 202 216 214 202 199 238 267 286 287 298 306 307 312 310 301 293 241 156 176 202 171 206 213 187 202 228 225 220 222 221 224 226 225 230 230 241 255 259 269 279 296 295 288 292 294 301 310 316 322 329 335 341 348 351 352 353 351 349 348 346 345 347 351 352 353 353 346 340 338 337 336 336 336 335 326
181 187 183 182 175 170 179 186 193 203 215 224 215 197 216 244 246 292 297 311 315 312 325 315 266 277 229 165 179 188 182 212 212 206 224 238 233 224 221 221 226 228 227 232 231 239 263 262 268 281 290 294 298 299 298 304 313 317 324 331 338 344 349 353 354 353 351 350 350 348 346 345 344 347 351 349 344 339 338 339 340 341 339 342 341
184 182 176 176 176 177 183 188 192 197 201 197 190 185 197 215 246 309 305 310 300 308 347 342 330 319 286 172 192 201 203 213 215 238 241 229 226 214 192 201 213 231 227 236 240 238 269 268 262 276 283 288 292 295 302 310 317 322 327 334 340 343 347 352 353 351 349 347 347 345 342 340 338 341 346 345 341 340 339 340 343 345 344 346 349
185 181 176 173 173 182 184 183 187 188 189 189 184 188 198 209 285 302 302 322 300 308 7 13 14 1 350 84 212 212 221 235 211 211 216 216 229 143 72 120 66 217 214 228 234 226 298 299 260 274 280 279 281 287 305 314 317 323 326 331 337 339 338 343 347 347 345 342 341 340 337 335 332 334 341 342 341 341 340 342 348 351 350 350 353
188 182 182 180 177 186 187 184 189 188 188 189 184 189 199 209 264 275 293 356 349 348 15 18 21 19 359 288 274 125 97 288 18 81 93 44 340 233 304 13 34 150 190 201 214 228 301 330 300 296 284 276 280 284 298 312 320 321 323 330 335 335 332 334 340 341 341 338 336 335 332 328 325 331 339 340 341 343 341 345 354 357 357 356 356
189 183 185 194 195 193 192 189 192 190 190 196 195 200 212 226 235 238 262 2 6 5 12 13 25 37 41 352 358 74 69 292 322 48 47 48 28 306 282 62 62 107 172 348 335 286 279 274 308 323 312 292 290 291 300 315 329 321 313 321 327 329 327 327 331 333 332 331 330 328 326 324 326 332 338 339 341 345 345 349 357 359 360 0 359
188 186 191 204 200 188 188 190 191 191 201 216 212 216 233 233 228 222 208 61 16 11 20 19 28 45 48 47 61 108 170 35 39 353 2 26 36 4 21 128 91 67 46 331 325 308 268 269 313 340 15 339 293 303 311 315 328 321 304 306 313 318 320 320 322 325 325 326 326 326 325 326 329 333 337 339 343 347 349 352 356 357 359 1 1
194 192 198 204 199 189 187 190 194 191 202 221 209 217 233 212 193 186 183 174 26 14 13 11 23 37 37 47 68 67 60 57 106 175 338 358 5 9 31 89 50 25 339 312 312 317 307 298 309 313 276 184 296 312 311 306 314 312 300 300 306 309 314 318 322 325 325 325 326 327 328 328 329 333 337 341 347 350 350 352 354 354 356 360 1
197 197 199 196 195 199 195 193 195 192 203 215 208 227 237 203 180 184 195 210 355 9 2 8 18 14 17 39 45 21 22 83 100 122 136 299 331 353 6 348 346 339 320 316 314 325 318 302 303 297 270 268 295 302 298 287 293 298 295 303 310 309 315 324 328 328 326 326 329 331 330 330 331 335 340 345 350 353 351 351 352 352 354 358 1
194 196 194 192 198 201 200 198 194 191 200 206 211 229 226 199 195 216 214 199 312 345 331 358 12 355 358 11 1 5 40 103 103 107 114 115 301 321 334 336 338 338 341 330 316 317 307 300 312 311 291 288 297 303 300 285 285 292 296 308 314 313 319 326 329 328 328 331 334 334 333 332 334 338 343 348 352 353 351 350 351 352 353 357 2
192 195 191 195 202 200 200 203 196 190 194 201 219 214 203 209 218 217 205 200 220 241 284 329 334 318 328 326 319 322 320 131 142 164 105 95 240 286 317 337 338 333 343 340 320 309 300 304 316 319 308 295 294 302 303 289 286 293 302 310 311 313 320 328 331 331 334 339 338 336 336 335 337 341 345 349 352 353 352 352 354 355 356 358 3
192 197 196 200 204 199 202 205 196 192 201 209 210 193 193 223 231 210 205 224 240 245 251 269 277 283 293 293 302 306 287 239 208 222 164 121 162 286 305 326 325 314 329 341 328 302 298 309 313 313 310 296 287 293 295 288 288 294 304 311 306 305 318 333 338 336 338 341 339 338 339 339 340 343 346 349 351 352 354 356 357 358 359 360 4
196 200 199 201 203 202 205 208 204 205 215 216 205 200 207 220 229 219 215 230 241 242 243 247 262 277 288 289 294 304 294 261 237 225 190 184 207 239 277 302 311 307 317 330 325 298 296 309 313 311 307 292 285 293 300 294 292 294 298 305 305 304 318 334 341 341 339 340 341 340 341 343 344 345 348 350 352 353 356 358 360 1 1 0 3
198 201 202 201 202 206 205 208 213 213 211 210 212 217 216 215 219 213 212 225 234 228 239 256 268 277 288 289 287 300 317 318 291 255 207 205 225 240 267 276 264 286 309 319 318 304 300 311 317 310 295 286 283 292 308 311 310 305 293 298 312 317 319 324 329 336 337 335 337 340 342 345 347 348 351 354 355 355 357 359 2 4 1 360 2
200 204 210 206 203 208 208 205 209 214 210 209 218 219 212 211 207 198 207 225 231 227 239 252 260 268 277 283 285 293 311 325 316 287 239 234 259 256 254 267 263 271 292 312 320 313 304 311 307 290 290 283 271 289 311 317 316 310 295 297 313 322 319 315 314 321 329 328 326 331 341 347 351 353 355 360 1 359 358 360 4 6 2 1 2
202 207 213 209 208 211 211 206 205 213 216 215 221 220 214 215 212 204 207 212 216 224 236 246 255 265 274 283 292 294 295 298 301 296 269 262 275 261 235 226 271 287 293 317 326 308 303 316 307 287 292 280 281 310 319 316 312 309 304 299 303 310 309 305 301 304 314 318 316 323 339 350 355 358 2 6 7 5 3 2 4 6 4 3 4
207 209 211 210 213 214 214 213 209 213 218 221 226 224 218 223 224 218 218 217 216 227 243 252 256 264 271 277 284 286 284 282 284 294 296 288 278 243 224 214 208 294 320 326 323 281 300 321 317 295 284 293 317 327 318 309 307 307 306 297 295 303 304 297 292 292 300 307 309 318 339 353 358 3 9 12 12 12 10 7 5 4 5 7 7
209 209 211 213 215 216 218 220 216 216 222 226 230 227 221 231 236 230 229 227 222 229 248 256 254 258 262 267 280 287 286 282 276 283 297 303 295 239 233 240 224 202 230 298 289 264 298 324 332 329 327 325 323 316 304 308 311 314 315 298 287 298 302 299 294 289 289 293 301 314 336 353 1 7 11 15 16 16 15 13 9 6 6 10 12
216 210 210 215 217 218 220 219 217 221 225 228 233 230 223 230 238 236 237 238 234 234 242 248 249 251 255 262 275 284 287 289 290 286 289 303 311 294 274 272 251 225 204 201 254 275 283 309 327 332 330 327 321 307 300 306 311 319 324 310 292 292 295 301 303 291 280 282 292 309 336 352 0 8 13 15 18 19 19 17 13 10 8 9 14
224 216 211 213 215 216 217 217 220 223 224 226 232 233 227 229 233 235 238 244 245 241 241 247 249 251 258 263 263 271 280 283 286 286 282 294 307 306 298 282 256 245 231 198 200 273 264 284 308 313 314 316 315 309 306 309 309 312 317 318 315 306 300 301 301 289 272 271 284 299 331 351 357 6 14 16 17 19 19 17 15 15 13 9 13
226 223 222 216 212 214 215 216 222 225 225 226 227 230 233 233 235 237 238 241 247 249 247 249 251 254 262 269 266 269 277 278 280 282 280 289 295 293 295 283 256 242 236 211 204 249 262 279 299 310 319 313 307 303 302 309 309 300 302 310 315 320 320 316 310 296 275 265 271 280 315 348 354 5 16 17 17 18 15 16 20 22 21 16 15
227 228 233 224 214 215 215 215 219 224 228 228 224 226 232 235 238 241 240 241 248 255 252 248 249 252 257 267 271 271 275 280 284 283 281 283 283 288 304 301 264 242 245 233 224 246 268 279 291 312 323 310 306 309 304 304 305 300 304 306 308 326 349 2 352 329 287 263 257 256 290 338 349 7 19 19 19 17 14 18 26 31 30 26 23
228 227 232 232 226 222 216 214 216 219 225 230 227 225 229 233 236 237 238 241 249 256 249 243 247 253 258 267 271 269 271 275 276 277 279 276 275 289 314 332 314 271 257 248 238 241 257 269 285 302 300 288 302 318 314 308 308 309 311 309 310 330 0 10 1 1 292 248 242 245 279 314 346 16 22 22 23 18 17 25 33 38 38 34 32
237 234 231 231 231 228 223 219 218 217 219 226 229 228 227 230 233 235 236 238 246 252 245 242 249 255 260 266 267 266 269 271 270 274 282 278 276 293 305 301 313 344 270 250 244 241 244 256 278 284 278 284 300 311 312 311 312 314 315 314 313 317 334 344 345 346 266 239 232 240 268 286 338 28 25 22 26 22 22 34 41 44 44 41 41
260 252 244 236 228 225 226 226 226 223 220 224 230 230 228 230 233 236 235 232 239 250 249 248 250 251 256 259 258 261 265 266 268 272 280 281 278 285 282 269 268 289 275 224 228 240 247 250 261 274 285 297 304 311 316 317 316 315 316 320 320 315 322 333 335 324 262 237 234 248 265 272 302 33 34 30 34 29 26 36 45 48 48 47 46
259 255 263 262 243 230 226 225 227 229 227 229 234 232 227 227 232 235 236 236 242 251 254 254 252 247 246 248 251 261 265 262 265 269 273 275 274 275 275 271 266 266 257 234 235 244 251 257 268 282 295 304 308 315 321 321 321 319 317 319 319 317 322 329 330 318 263 238 247 262 268 263 256 40 42 40 46 41 32 35 41 46 49 50 51
256 252 266 278 272 258 242 230 225 226 228 231 237 238 230 227 230 234 238 244 248 251 252 253 253 250 247 248 253 258 258 259 262 265 267 269 269 270 271 272 264 254 253 258 257 254 257 272 285 293 301 305 306 314 320 319 319 319 318 318 315 313 315 318 321 314 279 260 267 273 267 251 235 222 36 48 60 53 42 40 41 43 45 47 50
248 263 267 265 261 262 265 255 238 226 224 228 231 234 237 236 235 238 242 247 249 248 248 251 256 262 266 266 263 258 259 264 263 260 262 266 269 269 267 264 255 250 258 263 258 255 259 271 280 283 289 290 293 306 313 308 305 308 311 311 311 315 316 312 308 302 289 278 279 277 251 225 221 230 258 45 73 59 50 49 46 45 45 44 47
231 250 264 255 241 239 253 268 260 239 222 223 227 227 232 236 236 237 242 248 253 252 251 255 258 262 265 263 260 260 260 258 254 254 260 267 271 267 258 246 236 239 252 259 259 263 264 264 265 265 271 275 281 294 297 283 277 286 295 295 301 312 316 314 310 297 288 287 284 271 231 212 215 225 233 225 109 70 60 58 50 48 49 44 44
236 246 255 245 232 228 231 253 271 262 234 219 224 225 225 230 233 235 240 246 254 262 269 271 267 263 260 256 258 261 254 249 254 259 264 269 270 264 255 249 244 244 252 259 265 269 263 256 256 260 265 268 274 284 283 270 266 278 286 286 293 306 312 314 317 304 273 266 267 262 240 225 223 223 225 226 209 127 74 67 61 58 55 49 45
238 243 246 233 225 229 232 237 265 273 250 225 222 227 228 233 236 238 243 248 252 257 266 275 270 263 259 256 260 256 246 249 261 264 267 272 269 265 264 265 262 260 262 265 265 263 255 251 255 259 259 262 270 279 280 278 278 280 279 279 288 300 305 306 312 308 263 239 240 252 246 232 227 226 225 228 225 199 138 94 80 70 62 54 47
240 239 240 239 228 230 234 226 236 260 252 232 225 231 235 239 241 242 247 251 251 249 250 255 256 254 252 252 257 259 259 270 276 269 270 274 272 271 273 272 270 268 268 267 265 260 253 251 257 259 258 263 271 276 276 277 279 278 275 273 279 288 292 292 298 295 265 232 227 243 245 235 231 231 229 231 230 213 189 164 109 78 64 59 55
247 241 236 241 237 226 224 223 225 237 241 238 237 240 243 245 244 245 248 249 247 243 241 243 247 247 244 241 248 266 280 281 268 259 266 274 278 279 279 274 270 270 271 268 264 260 253 252 257 262 264 267 274 277 276 273 273 277 275 269 269 274 272 264 265 273 273 251 236 241 245 237 232 232 231 231 228 217 210 207 153 90 70 67 63
253 255 254 246 245 242 231 225 230 230 226 233 243 245 246 246 243 242 245 245 244 243 241 242 245 246 245 244 247 256 258 251 246 248 261 274 280 280 277 272 268 270 273 272 268 264 259 257 258 262 267 269 272 277 279 274 271 272 268 264 266 266 260 257 261 267 272 255 238 239 246 240 228 225 227 226 223 219 220 215 177 107 84 79 66
266 269 272 268 261 263 265 264 268 253 231 231 240 239 238 239 238 239 240 239 241 244 242 240 243 249 254 253 250 250 251 251 254 257 263 272 277 275 271 266 265 268 273 275 275 271 267 262 260 264 270 272 273 276 278 273 270 270 267 262 259 255 255 263 268 268 262 243 234 240 251 242 221 216 220 220 218 220 223 214 183 130 100 87 72
318 312 300 295 296 303 306 284 257 253 247 237 234 235 235 234 235 233 231 232 236 240 239 240 247 255 256 251 247 248 248 248 252 256 258 264 268 269 269 270 273 277 278 278 278 274 270 268 267 269 273 274 275 277 276 273 271 272 270 263 258 258 263 265 264 261 252 232 223 227 242 238 218 213 218 220 219 220 218 210 190 149 122 100 83
0 342 325 311 307 313 313 289 263 257 255 239 225 225 226 228 233 231 222 218 220 221 225 232 237 235 232 234 240 247 252 252 251 252 255 259 263 266 273 280 284 286 285 284 283 281 279 276 274 273 274 275 277 279 281 279 274 271 269 263 261 262 262 260 259 256 246 228 219 221 234 240 224 215 217 219 220 220 215 208 195 160 135 118 97
35 20 3 339 309 286 288 292 274 253 246 241 230 222 217 217 222 222 212 205 203 206 212 215 215 218 221 230 241 248 253 256 255 256 258 263 268 272 278 285 289 290 290 291 291 288 287 286 281 277 276 279 282 283 283 283 278 272 264 258 259 258 251 249 254 253 243 230 220 218 226 236 230 218 216 216 218 221 218 207 194 169 146 138 120
57 50 42 35 23 0 94 52 219 204 210 239 233 224 219 213 207 200 195 195 196 200 208 213 220 225 219 228 249 256 257 259 264 269 272 276 282 286 291 293 294 295 296 297 296 292 289 287 282 278 279 283 288 288 285 283 283 277 262 254 258 256 241 234 241 248 246 233 222 216 218 227 232 211 202 201 209 220 222 211 195 176 158 157 147
70 68 67 67 69 77 88 84 81 80 43 6 340 280 230 205 192 189 187 183 175 171 171 171 190 197 174 173 228 257 268 275 284 290 295 302 306 308 309 305 300 299 296 293 291 289 287 285 281 282 283 286 290 291 288 284 284 281 272 267 266 258 243 239 239 239 239 227 216 210 209 210 201 182 179 177 187 218 223 214 200 187 178 177 170
Height
841 842 844 845 846 848 849 850 851 851 852 853 853 852 852 852 852 852 851 851 850 850 849 849 849 849 850 850 850 850 850 850 850 850 850 850 850 850 850 850 850 850 850 850 850 851 851 851 852 853 853 854 854 854 854 853 853 853 853 853 852 852 851 851 850 849 849 848 848 847 847 847 847 846 845 845 844 842 841 840 839 838 838 837 837
842 843 845 846 847 848 849 850 851 851 852 853 852 852 852 852 852 851 851 850 850 849 849 849 849 850 850 850 850 850 850 850 850 850 850 850 850 850 850 850 851 851 851 850 850 851 851 851 852 853 853 853 853 854 854 853 853 852 852 852 852 851 850 850 849 848 848 847 847 846 846 845 845 845 844 844 842 841 839 838 837 836 835 834 835
843 845 845 847 848 849 849 850 851 852 852 853 852 852 852 852 852 851 850 849 849 849 848 848 849 850 850 849 849 849 850 850 850 850 850 850 850 850 850 850 851 851 851 851 851 851 851 851 852 853 853 853 853 853 853 853 852 852 851 851 850 850 849 849 848 847 846 846 845 845 844 844 843 843 842 842 841 839 838 837 835 833 832 831 833
844 845 846 847 848 849 850 851 851 852 853 853 853 853 852 852 852 851 850 849 849 849 848 848 848 848 848 849 848 849 849 849 849 850 850 850 850 850 850 850 850 851 851 850 851 851 851 851 852 852 853 853 852 853 853 852 851 851 850 849 849 848 848 847 847 846 845 844 844 843 842 842 841 841 840 840 839 838 837 835 833 831 829 828 831
845 846 846 847 848 849 850 851 852 852 852 852 852 852 852 852 851 851 850 849 849 848 848 848 848 847 848 849 848 848 848 849 849 849 850 850 850 851 850 850 850 850 851 851 851 851 852 852 852 853 853 852 852 852 852 851 850 850 849 848 848 847 846 846 845 845 844 843 843 842 841 840 840 839 839 839 838 837 835 833 831 829 827 826 827
845 846 846 847 848 850 850 851 851 852 852 852 852 852 851 851 851 850 850 849 849 849 848 848 848 848 848 849 848 848 849 849 849 849 850 850 851 851 851 851 851 851 851 851 851 851 852 852 852 852 852 852 852 852 851 850 850 849 848 848 847 846 845 844 844 844 843 842 842 841 840 839 839 839 838 838 837 836 834 832 830 827 825 824 824
845 846 847 848 849 850 851 851 851 852 852 852 852 852 851 851 850 850 849 849 849 849 849 848 848 848 848 848 849 849 849 849 849 849 850 850 851 851 851 851 851 851 851 851 851 851 852 852 852 852 852 852 852 851 851 849 849 848 847 847 846 845 844 843 843 843 842 841 841 840 839 839 838 838 837 837 836 835 833 831 829 827 824 823 823
845 846 847 848 849 850 850 851 851 851 851 851 852 852 851 851 851 850 850 850 850 849 849 849 848 848 848 848 849 849 848 849 850 850 850 850 851 851 851 851 851 851 851 851 851 851 851 851 851 851 851 851 851 850 849 848 848 847 847 846 846 845 844 843 842 842 841 840 840 839 838 838 838 837 836 836 835 833 831 830 828 826 824 822 822
846 846 847 848 849 850 850 850 851 851 851 852 852 852 852 851 851 851 851 850 850 849 849 849 849 848 849 849 849 849 849 850 850 850 851 850 850 850 850 851 851 850 850 850 850 850 851 850 850 850 850 850 850 849 848 847 847 847 846 846 846 845 843 842 841 841 840 839 839 838 838 837 837 836 835 834 833 831 830 828 827 825 824 822 820
845 846 846 848 849 850 850 850 851 851 851 851 852 852 852 852 852 852 851 851 850 850 849 849 849 848 849 849 849 849 849 850 850 850 850 850 849 849 849 850 850 849 849 848 849 849 849 849 849 849 849 849 849 848 847 847 847 846 846 846 845 844 843 841 841 840 839 839 838 837 837 836 835 835 834 833 832 830 828 827 825 824 823 821 819
845 846 847 848 849 850 850 850 851 851 851 851 851 851 852 852 852 852 851 851 851 850 849 849 848 849 849 849 849 849 849 850 850 849 849 848 848 848 848 849 848 848 848 847 848 848 848 848 848 849 848 848 848 847 847 846 846 846 846 845 844 843 842 841 840 839 839 838 837 837 836 835 834 834 833 832 831 829 827 826 824 822 821 820 818
845 846 847 848 849 850 850 850 851 851 851 851 851 851 851 852 852 852 851 851 851 850 850 850 849 848 848 848 848 849 849 849 849 849 848 848 847 847 847 847 847 847 848 847 847 847 847 847 848 848 847 847 847 847 846 846 846 846 845 845 844 843 842 841 840 839 838 838 837 836 835 835 834 833 832 831 830 828 826 824 823 820 819 818 817
846 847 848 849 849 850 850 850 851 851 851 851 851 851 851 852 852 852 852 851 851 850 850 850 849 848 848 848 848 848 848 848 848 848 848 848 847 847 847 847 848 848 848 848 847 847 847 847 847 847 847 847 847 846 846 846 846 845 845 845 843 842 841 840 839 838 838 837 836 835 835 834 833 832 831 831 829 827 825 823 821 819 817 816 815
846 847 848 849 849 850 850 850 851 851 851 851 851 852 852 852 853 852 852 852 851 850 850 849 849 848 848 848 848 848 847 847 848 848 848 848 848 848 848 848 848 848 849 849 849 849 848 847 847 847 847 847 847 846 845 845 846 845 844 844 842 842 841 839 838 838 837 836 835 835 834 833 832 831 831 830 828 826 823 821 820 818 816 814 813
846 847 848 849 849 849 850 850 851 851 851 851 851 852 852 853 853 853 852 852 851 850 851 849 849 848 847 849 850 849 849 848 848 848 847 847 847 847 848 847 847 847 848 849 849 849 848 847 847 847 847 847 847 846 845 845 845 844 844 843 842 841 840 839 838 837 837 836 835 834 833 832 831 831 830 829 827 825 822 820 818 817 815 813 812
846 847 848 849 849 849 850 850 850 851 851 851 852 852 853 853 853 853 852 852 851 850 850 850 849 848 849 850 849 851 855 852 848 848 847 847 847 847 847 847 846 847 848 848 848 848 848 847 847 847 847 847 847 846 846 845 844 843 843 842 842 841 840 839 838 837 836 835 835 834 833 832 831 831 830 828 826 824 822 819 817 816 814 812 811
846 847 847 848 849 849 849 850 850 851 851 851 852 852 853 853 853 853 852 852 851 851 850 849 849 849 849 850 851 854 856 851 849 849 847 847 847 847 847 847 846 847 848 848 848 847 847 847 847 846 846 846 847 847 846 845 844 843 843 842 842 841 840 839 838 838 837 836 835 834 833 832 831 830 829 827 825 823 821 819 817 815 813 811 810
846 847 847 848 849 849 849 850 850 850 851 851 852 852 853 853 853 853 852 852 852 851 850 849 850 849 849 849 850 853 852 849 850 851 848 846 847 847 847 847 847 847 847 847 847 847 846 846 846 846 845 846 846 846 845 845 844 844 843 842 842 841 840 840 839 838 837 836 835 834 833 832 831 829 828 827 825 823 821 819 817 815 813 811 809
845 846 847 847 848 849 849 850 850 850 851 851 851 852 852 852 852 852 852 852 852 851 851 850 849 849 849 848 848 849 848 848 850 852 852 850 847 846 847 847 847 847 846 846 846 846 845 845 846 845 845 845 845 845 844 844 843 843 843 842 841 841 841 840 839 838 837 836 835 834 832 831 830 829 828 826 825 823 821 819 817 815 812 810 809
845 845 846 847 847 848 849 849 850 850 851 851 851 852 852 852 852 852 852 852 851 851 851 850 849 849 849 849 848 848 848 847 847 849 852 853 849 847 847 847 846 846 846 845 845 845 845 845 845 845 845 844 844 843 843 843 842 842 842 841 841 840 840 839 838 837 836 835 834 833 832 830 829 828 827 826 824 822 820 819 817 814 812 810 808
845 845 846 846 847 848 848 849 849 850 850 850 851 851 851 851 851 852 852 851 851 851 851 851 850 850 850 849 849 848 848 848 848 848 848 852 852 849 847 847 846 846 845 845 845 844 844 844 844 844 843 843 842 842 842 841 841 841 841 840 840 839 839 838 837 836 835 834 833 832 831 830 829 828 826 825 823 822 820 818 816 814 812 810 808
844 845 845 846 847 848 848 848 849 849 850 850 850 851 851 851 851 851 851 851 851 851 851 851 850 850 850 850 849 849 849 848 848 848 847 849 851 849 848 847 846 846 845 845 844 844 844 844 843 842 842 841 841 841 841 840 840 840 840 839 839 838 838 837 836 835 835 834 833 832 831 829 828 827 826 824 822 821 819 817 815 813 811 810 808
843 844 845 846 847 847 848 848 848 849 849 849 850 850 850 850 850 850 850 850 850 850 850 850 850 850 850 850 850 849 848 848 847 848 847 848 849 849 847 847 846 845 845 844 844 843 843 843 842 841 841 840 840 840 840 839 839 839 838 838 838 837 837 836 835 835 834 833 832 831 830 829 828 827 825 823 822 820 818 816 814 813 811 809 807
843 843 844 845 846 847 847 847 848 848 849 849 849 849 850 850 849 849 850 850 850 850 850 850 850 850 850 849 849 849 848 848 847 846 847 847 848 848 847 846 846 845 844 844 843 843 842 842 841 840 840 840 839 839 839 839 838 838 838 837 837 836 836 836 835 834 833 832 831 830 829 828 827 826 825 823 821 819 818 816 814 812 810 808 807
841 842 843 844 845 845 846 846 847 847 848 848 848 849 849 849 849 849 849 849 849 849 849 849 849 849 849 849 848 848 847 847 846 846 846 846 846 846 845 845 845 844 843 843 842 842 841 841 840 839 839 839 839 839 839 838 838 837 837 837 836 836 835 835 834 834 833 831 830 829 828 827 827 826 824 823 821 819 817 816 814 812 810 808 806
840 841 842 842 843 844 845 845 846 847 847 847 847 848 848 848 848 848 848 848 848 849 849 849 849 849 848 848 848 847 847 847 846 846 845 846 845 845 844 845 845 843 843 843 842 841 841 840 839 838 838 838 838 838 838 837 837 837 837 836 836 835 834 834 834 833 832 830 829 828 827 827 826 825 824 822 821 819 817 815 814 812 810 808 806
839 840 841 841 842 842 843 844 845 845 846 846 846 846 847 847 847 847 847 848 848 848 848 848 848 848 847 847 847 847 846 846 846 845 845 845 844 843 844 845 846 844 842 842 842 841 840 840 839 838 838 838 838 837 837 837 837 837 836 835 835 834 834 833 833 832 831 830 829 828 827 826 825 824 823 822 820 818 816 815 813 811 810 808 806
839 839 840 840 841 841 842 843 843 844 844 845 845 845 846 846 846 846 846 847 847 847 847 847 847 847 847 846 846 846 846 845 845 845 844 844 843 843 843 843 846 846 845 843 842 840 840 839 838 838 837 837 837 836 836 836 836 836 835 834 834 833 832 832 831 831 830 829 828 828 827 826 825 824 823 821 820 818 816 814 813 811 810 808 807
838 838 839 839 840 840 841 841 842 843 843 843 844 844 845 845 845 846 846 846 846 846 846 846 846 846 846 846 845 845 845 844 844 844 844 843 843 842 842 841 842 845 846 846 844 840 839 839 838 838 837 837 836 836 836 835 835 835 834 833 833 832 831 830 830 829 829 828 828 828 827 826 824 823 822 821 820 818 816 814 813 811 810 808 807
836 837 837 838 839 839 839 840 840 841 842 842 843 843 844 844 844 845 845 845 845 845 845 845 845 845 845 845 844 844 844 843 843 843 843 843 842 842 842 841 841 841 842 845 844 839 838 839 838 837 837 836 836 835 835 834 834 833 832 832 832 830 829 829 828 828 827 827 827 827 827 826 824 823 821 820 819 818 816 814 813 811 810 808 807
835 835 835 836 837 838 838 839 839 839 840 840 841 842 842 843 843 844 844 845 845 844 844 844 844 844 844 844 843 843 843 843 842 843 842 842 842 841 841 841 840 840 839 841 842 840 838 838 837 837 836 836 835 834 833 833 833 832 831 831 830 829 828 828 827 827 826 826 826 827 826 825 824 823 821 820 819 818 816 814 812 811 809 808 807
833 833 834 834 834 835 836 837 838 838 838 839 839 840 840 841 841 842 843 843 844 843 843 843 843 843 843 843 843 842 842 842 841 842 842 841 841 840 840 840 839 839 838 838 840 838 837 837 837 836 836 835 834 833 833 832 831 831 831 830 829 828 827 826 826 825 825 825 825 825 825 824 824 822 821 820 818 817 816 814 813 811 809 808 807
832 832 832 832 832 833 833 834 835 836 836 837 838 838 839 839 839 840 841 842 842 842 842 842 842 842 842 841 841 841 841 841 841 841 841 840 840 839 839 839 838 838 838 837 837 837 836 837 836 836 835 834 833 833 832 831 831 830 830 829 829 827 826 825 825 824 823 824 824 824 824 823 823 822 820 819 818 817 816 815 813 811 809 808 807
830 830 831 831 832 832 832 832 833 834 834 835 836 836 836 837 838 838 839 840 840 840 840 841 840 841 840 840 840 840 840 840 840 840 839 839 839 839 838 838 838 837 837 836 836 836 836 836 835 835 834 833 833 832 831 830 830 829 829 828 828 827 826 825 824 824 823 823 823 823 823 822 822 821 820 819 818 817 816 815 813 812 810 808 807
829 829 830 830 830 830 830 831 831 831 832 832 833 834 834 835 835 836 837 837 838 838 838 838 838 838 839 838 838 838 838 838 838 838 838 838 837 837 837 837 836 836 835 835 835 835 835 834 834 833 833 832 831 831 830 829 829 828 828 827 827 826 825 824 823 823 822 822 822 822 822 822 821 820 820 819 818 817 816 815 814 812 811 809 807
827 828 828 828 828 828 829 829 829 829 830 830 831 831 832 833 833 834 835 835 836 836 836 836 836 836 836 836 836 836 836 837 836 836 836 836 836 835 835 835 835 834 834 833 833 833 833 833 832 832 831 831 830 829 829 828 827 827 827 826 826 825 824 823 823 822 822 821 821 821 821 821 821 820 819 819 818 817 816 815 814 813 811 810 808
824 824 825 826 827 827 826 826 827 827 828 828 828 829 830 831 831 832 833 834 834 834 834 834 834 834 834 834 834 835 835 835 835 835 834 834 834 834 834 833 833 833 833 832 832 832 832 831 831 830 830 829 828 828 827 827 826 826 825 825 825 824 824 823 822 822 821 821 821 821 820 820 820 819 818 818 817 817 816 815 815 813 812 811 809
821 821 822 825 827 827 826 824 824 824 825 826 826 827 828 828 829 830 831 831 831 831 832 832 831 832 832 832 832 832 833 833 833 833 833 832 833 833 832 832 832 832 832 831 831 831 830 830 830 829 828 827 826 826 826 825 825 824 824 824 824 824 823 823 822 821 821 820 820 820 819 819 819 818 817 817 817 817 816 816 815 814 813 811 810
820 820 820 822 824 825 825 824 823 821 821 823 823 824 825 826 827 828 828 829 829 829 829 829 830 831 832 831 831 831 831 831 831 831 831 831 831 831 831 831 831 831 830 830 830 829 829 828 828 827 827 826 825 824 824 824 824 823 823 823 822 822 822 822 821 820 820 819 819 819 819 819 819 818 817 817 817 816 816 816 815 814 813 812 811
818 818 818 819 820 821 822 823 823 821 819 820 821 821 822 824 824 825 826 827 827 827 827 827 828 830 830 829 829 829 829 829 829 829 829 830 830 830 830 830 830 829 829 829 828 828 827 827 826 826 825 824 823 823 822 822 822 821 821 821 820 820 820 820 819 819 818 818 817 817 818 818 818 817 817 816 816 816 816 815 815 814 813 812 811
815 816 816 817 817 817 817 818 821 822 819 817 818 819 820 821 822 823 824 824 825 825 825 825 826 827 827 827 827 828 828 828 828 828 828 829 829 829 829 829 829 828 828 827 827 826 826 825 825 824 824 823 822 821 821 820 820 819 819 819 819 818 818 818 817 817 817 816 816 816 816 816 817 816 816 816 816 815 815 815 815 814 813 812 812
812 814 815 815 814 814 813 812 817 822 821 816 815 817 818 819 820 821 821 822 822 822 823 823 824 824 825 826 826 827 827 826 827 827 827 828 828 828 828 828 828 827 826 826 825 825 825 824 823 823 822 821 820 820 820 820 819 818 818 817 817 817 816 816 816 816 815 815 815 815 815 815 815 815 815 815 815 815 815 815 814 814 813 813 812
810 810 812 814 813 812 811 809 813 818 820 816 814 815 816 817 818 818 819 819 819 820 820 821 822 822 823 824 824 825 825 825 826 826 826 827 826 826 826 826 826 825 825 824 823 823 823 822 821 821 820 819 819 819 819 818 817 817 816 816 815 815 815 815 814 814 814 814 814 814 814 814 814 814 813 813 814 814 814 814 814 814 813 813 812
808 808 810 812 812 812 811 810 811 813 815 815 813 814 814 815 816 816 817 817 817 817 818 819 820 820 821 822 823 823 824 824 824 823 823 824 824 824 824 823 823 823 823 822 822 821 821 821 820 819 818 818 817 817 817 816 816 815 815 814 814 813 813 813 812 812 812 812 812 812 812 812 812 813 812 812 812 813 814 814 813 813 813 813 812
807 808 809 809 810 811 811 811 811 811 811 812 812 812 813 813 814 814 814 815 815 816 816 817 818 819 819 820 821 821 820 820 819 819 820 822 822 821 821 821 821 821 820 820 820 819 819 819 818 817 816 816 815 814 814 814 814 813 813 812 811 810 810 809 809 809 810 810 811 810 810 810 811 811 811 811 811 812 813 813 813 813 812 812 812
806 806 807 807 807 809 809 810 811 811 809 809 809 810 811 811 812 812 813 814 814 814 815 815 816 817 817 818 819 819 818 818 819 819 819 820 819 819 819 818 818 818 818 818 818 818 817 817 816 815 814 814 813 812 813 813 812 812 811 810 809 808 807 807 806 806 807 807 808 808 808 808 809 809 809 809 810 811 812 812 812 812 812 812 812
805 805 805 805 806 807 808 808 808 808 807 807 807 808 808 809 810 811 811 812 812 813 813 814 814 815 815 816 816 817 817 817 818 818 818 817 817 817 816 816 816 816 815 816 816 816 815 815 814 813 812 811 811 810 811 811 810 810 809 808 807 806 805 804 804 804 804 804 805 806 805 806 806 807 807 808 809 809 810 811 811 811 812 812 812
804 804 804 804 805 806 807 806 805 805 806 806 805 805 806 806 808 808 809 810 810 811 812 812 813 813 813 814 814 815 815 815 816 816 816 816 815 815 815 814 814 813 813 813 813 813 813 812 812 811 810 809 809 808 808 808 808 807 807 806 805 804 803 802 801 801 801 801 802 802 803 803 804 805 805 806 807 808 808 809 810 810 811 812 812
803 803 803 803 803 804 805 805 804 805 806 806 805 804 803 804 805 806 807 808 809 810 810 811 811 811 811 812 812 813 813 813 813 814 814 814 813 813 812 812 812 811 810 811 811 810 810 809 809 809 808 807 807 806 806 806 805 805 805 804 803 802 802 801 799 799 800 799 799 800 801 801 802 802 803 804 805 806 807 808 808 809 810 811 812
804 804 804 803 802 802 803 804 804 805 806 805 804 803 802 802 803 804 805 806 807 808 809 810 810 810 811 811 811 812 812 812 812 812 812 813 812 811 811 810 810 809 809 809 808 808 807 807 806 806 805 805 804 803 803 803 802 802 802 801 800 800 800 799 797 797 798 798 798 798 798 799 799 800 800 802 804 804 805 806 808 808 809 810 811
805 806 805 804 804 803 803 804 805 806 806 806 805 803 802 801 802 802 803 804 805 806 807 808 809 809 810 810 810 810 811 811 812 812 812 812 811 810 809 809 808 808 807 807 807 806 805 804 804 803 802 802 801 800 800 801 800 800 799 798 798 798 797 796 796 796 796 795 795 796 796 796 797 798 798 800 802 803 804 805 806 807 808 809 809